Regional Weather Roundup
Issued by NWS

Home | Current Version | Previous Version | Graphics & Text | Print | Product List | Glossary On
Versions: 1 2 3 4 5 6 7 8 9 10 11 12 13 14 15 16 17 18 19 20 21 22 23 24 25 26 27 28 29 30 31 32 33 34 35 36 37 38 39 40 41 42 43 44 45 46 47 48 49 50
000
ASUS43 KDTX 170801
RWRMI
MICHIGAN HOURLY REGIONAL WEATHER ROUNDUP
NATIONAL WEATHER SERVICE DETROIT/PONTIAC MI
400 AM EDT THU APR 17 2014

NOTE: "FAIR" INDICATES FEW OR NO CLOUDS BELOW 12,000 FEET WITH NO
SIGNIFICANT WEATHER AND/OR OBSTRUCTION TO VISIBILITY.

MIZ047>049-052>055-059>063-066>070-074>076-081>083-170900-
SOUTHEAST LOWER MICHIGAN

CITY           SKY/WX    TMP DP  RH WIND       PRES   REMARKS
ADRIAN         CLEAR     32  29  88 E7        30.32S WCI  26
ALMA           CLOUDY    33  22  63 E6        30.34S WCI  27
ANN ARBOR      CLEAR     32  25  75 E7        30.33F WCI  26
BAD AXE        CLOUDY    33  23  68 SE7       30.39F WCI  26
CARO           MOCLDY    33  18  54 E6        30.37R WCI  28
DETROIT CITY   FAIR      35  25  66 E13       30.37S WCI  26
DETROIT        MOCLDY    33  25  72 NE5       30.36S WCI  29
FLINT          PTCLDY    32  21  64 E8        30.34S WCI  25
GROSSE ILE     CLEAR     34  27  75 E7        30.33F WCI  28
HILLSDALE      PTCLDY    35  28  73 SE12      30.27S WCI  27
HOWELL         PTCLDY    32  21  65 SE10      30.32S WCI  23

CITY           SKY/WX    TMP DP  RH WIND       PRES   REMARKS
JACKSON        PTCLDY    32  27  81 SE9       30.30S WCI  24
LAMBERTVILLE   CLEAR     37  28  70 E5        30.33S WCI  34
LANSING        MOCLDY    33  21  61 SE10      30.32S WCI  25
LAPEER         FAIR      30  19  64 E5        30.36S WCI  25
MASON          MOCLDY    32  24  72 SE7       30.31S WCI  26
MONROE         CLEAR     37  30  75 CALM      30.33S
MT. CLEMENS    CLEAR     33  25  71 E14       30.36S WCI  23
PONTIAC        CLEAR     32  23  69 SE6       30.34S WCI  26
PORT HOPE        N/A     35  25  66 SE14G20   30.40R WCI  26
PORT HURON     CLEAR     30  21  69 SE7       30.39F WCI  23
TRI CITIES     CLOUDY    33  20  58 E9        30.37R WCI  25
TROY           CLEAR     33  25  72 E3        30.37F
SAGINAW HB     MOCLDY    32  21  64 E3        30.37R
YPSILANTI      CLEAR     33  24  69 E7        30.35F WCI  27
$$
MIZ043>046-050>051-056>058-064>065-071>073-077>080-170900-
SOUTHWEST LOWER MICHIGAN

CITY           SKY/WX    TMP DP  RH WIND       PRES   REMARKS
BATTLE CREEK   CLOUDY    35  26  69 SE10      30.28S WCI  27
BENTON HARBOR  CLOUDY    38  27  64 SE17G23   30.22S WCI  28
BIG RAPIDS     CLOUDY    34  23  63 SE9       30.29S WCI  27
COLDWATER      MOCLDY    35  26  68 SE7       30.28R WCI  29
FREMONT        FAIR      36  23  59 SE10G17   30.25F WCI  29
HOLLAND        CLOUDY    38  27  64 SE13      30.25F WCI  30
GRAND RAPIDS   CLOUDY    36  25  64 E15       30.28F WCI  27
IONIA          FAIR      34  23  64 E9        30.29F WCI  26
KALAMAZOO      CLOUDY    37  26  64 SE8       30.27S WCI  31
LUDINGTON      CLOUDY    37  26  64 SE14G20   30.24S WCI  28
MARSHALL       CLOUDY    33  27  79 SE6       30.29R WCI  27
MOUNT PLEASANT CLOUDY    34  21  60 E7        30.33F WCI  28
MUSKEGON       CLOUDY    38  25  59 E13       30.24F WCI  30
SOUTH HAVEN    CLOUDY    38  27  64 SE12G20   30.23S WCI  30
$$
MIZ016>042-170900-
NORTHERN LOWER MICHIGAN

CITY           SKY/WX    TMP DP  RH WIND       PRES   REMARKS
ALPENA         CLOUDY    34  24  67 SE10      30.40R WCI  26
BEAVER ISLAND  CLOUDY    31  30  94 NE7       30.32F WCI  24
BELLAIRE       CLOUDY    37  20  51 SE3       30.33R
CADILLAC       CLOUDY    32  21  63 E8        30.27F WCI  25
CHARLEVOIX     CLOUDY    36  27  70 E5        30.35F WCI  32
FRANKFORT      CLOUDY    38  24  57 SE13G21   30.24F WCI  30
GAYLORD        CLOUDY    32  18  56 SE15      30.29F WCI  22
GRAYLING       CLOUDY    33  18  53 SE9       30.33S WCI  25
HARBOR SPRINGS CLOUDY    35  26  70 SE5       30.34R WCI  31
HOUGHTON LAKE  CLOUDY    32  19  58 SE7       30.33F WCI  26
MANISTEE       CLOUDY    37  21  52 SE9G17    30.25F WCI  31
OSCODA         CLOUDY    36  23  61 SE10G17   30.40R WCI  28
PELLSTON       CLOUDY    35  22  58 S3        30.36R
ROGERS CITY    CLOUDY    34  26  71 SE8G16    30.40S WCI  27
TRAVERSE CITY  CLOUDY    37  22  54 SE7       30.29F WCI  32
$$
MIZ007>008-015-170900-
EASTERN UPPER MICHIGAN

CITY           SKY/WX    TMP DP  RH WIND       PRES   REMARKS
KINROSS        CLOUDY    30  30 100 E14       30.38F WCI  20
MACKINAC ISLAN LGT SNOW  31  30  96 E10G22    30.36S WCI  22
NEWBERRY       LGT SNOW  29  28  96 E9        30.35R VSB 1   WCI  20
S. S. MARIE    LGT SNOW  29  27  92 E8        30.41S VSB 3/4 WCI  21
$$
MIZ004>006-011>014-085-170900-
CENTRAL UPPER MICHIGAN

CITY           SKY/WX    TMP DP  RH WIND       PRES   REMARKS
MANISTIQUE     LGT SNOW  31  30  96 E7        30.30F WCI  24
ESCANABA       CLOUDY    34  27  75 E17       30.22F WCI  23
MENOMINEE      CLOUDY    36  28  75 SE13      30.17F WCI  27
SAWYER-GWINN   CLOUDY    29  27  90 SE13      30.21F WCI  19
$$
MIZ001>003-009>011-084-170900-
WESTERN UPPER MICHIGAN

CITY           SKY/WX    TMP DP  RH WIND       PRES   REMARKS
IRON MOUNTAIN  LGT SNOW  30  27  88 E10G17    30.14F FOG     WCI  21
HOUGHTON       LGT SNOW  28  25  88 E20G30    30.20F VSB 3/4 WCI  15
COPPER HARBOR    N/A     30  26  85 S14G25    30.26F WCI  19
IRONWOOD       CLOUDY    30  27  86 E9        30.03F WCI  22
$$

ABBREVIATIONS USED IN REMARKS
   TC - TEMPERATURE IN CELSIUS
  WCI - WIND CHILL INDEX
   HX - HEAT INDEX
  VSB - VISIBILITY




USA.gov is the U.S. government's official web portal to all federal, state and local government web resources and services.